www.pogodaiklimat.ru

Погода и климат >> Архив погоды >> Южная Африка >> Коингнаас


ПОГОДА в Коингнаасе

  • Прогноз погоды в Коингнаасе
  • Монитор погоды в Коингнаасе

АРХИВ ПОГОДЫ в Коингнаасе

Время (UTC), дата Ветер
(напр.,м/с)
 
Видим.   Явления Облачность Т
(С)
Тd
(С)
f
(%)
Тe
(С)
Тes
(С)
Комфортность P
(гПа)
Po
(гПа)
Тmin
(С)
Tmax
(С)
R
(мм)
R24
(мм)
S
(см)
15 14.05 ЮЗ 4 н/о н/о +19.3 +14.6 74 +21 +21 комфорт 1013.9 1002.8 +18.3 +28.1
18 14.05 ЮВ 3 н/о н/о +15.5 +14.7 95 +15 +15 1015.7 1004.4 +15.4 +28.1
21 14.05 С 6 н/о н/о +17.2 +13.9 81 +16 +16 1015.3 1004.1 +15.4 +28.1
00 15.05 В 2 н/о н/о +15.3 +14.6 96 +15 +15 1017.8 1006.5 +13.2 +28.1
03 15.05 СВ 3 н/о н/о +13.6 +12.5 93 +12 +12 1017.4 1006.0 +13.2 +28.1
06 15.05 СВ 3 н/о н/о +12.1 +11.1 94 +10 +10 1018.0 1006.5 +12.1
09 15.05 Ю 6 н/о н/о +19.0 +14.7 76 +20 +20 1018.5 1007.3 +12.1 +19.2
12 15.05 ЮВ 9 н/о н/о +21.1 +14.3 65 +24 +24 комфорт 1016.6 1005.5 +12.1 +21.9
15 15.05 ЮВ 10 н/о н/о +17.8 +12.5 71 +17 +17 1016.4 1005.2 +17.7 +21.9
18 15.05 ЮВ 6 н/о н/о +14.6 +10.6 77 +13 +13 1017.0 1005.7 +14.4 +21.9
21 15.05 В 6 н/о н/о +14.3 +9.1 71 +12 +12 1017.2 1005.8 +13.8 +21.9
00 16.05 ЮВ 4 н/о н/о +12.0 +8.5 79 +10 +10 1016.6 1005.2 +11.9 +21.9
03 16.05 В 4 н/о н/о +9.7 +7.3 85 +7 +7 1016.7 1005.2 +9.7 +21.9
06 16.05 В 4 н/о н/о +8.9 +7.1 88 +6 +6 1016.5 1004.9 +8.6
09 16.05 ЮВ 3 н/о н/о +19.6 +11.4 59 +21 +21 комфорт 1015.7 1004.6 +8.6 +19.6
12 16.05 Ю 6 н/о н/о +21.7 +11.2 51 +24 +24 комфорт 1013.5 1002.5 +8.6 +22.6
15 16.05 ЮВ 6 н/о н/о +18.8 +11.9 64 +19 +19 1013.0 1001.9 +18.8 +22.6
18 16.05 В 5 н/о н/о +13.7 +10.3 80 +12 +12 1013.1 1001.8 +13.7 +22.6
21 16.05 СВ 5 н/о н/о +14.3 +9.1 71 +13 +13 1012.6 1001.3 +13.4 +22.6
00 17.05 З 6 н/о н/о +11.7 +10.4 92 +9 +9 1014.0 1002.6 +11.1 +22.6
03 17.05 З 6 н/о н/о +13.5 +12.4 93 +11 +11 1014.4 1003.0 +11.1 +22.6
06 17.05 З 4 н/о н/о +14.0 +12.4 90 +12 +12 1015.5 1004.1 +11.1
09 17.05 СЗ 6 н/о н/о +17.0 +10.9 67 +16 +16 1016.1 1004.9 +11.1 +17.1
12 17.05 З 7 н/о н/о +17.9 +11.3 65 +17 +17 1015.3 1004.1 +11.1 +18.1
15 17.05 З 4 н/о н/о +17.2 +11.5 69 +17 +17 1016.2 1005.0 +17.2 +18.3
18 17.05 СЗ 3 н/о н/о +14.4 +12.9 91 +14 +14 1017.9 1006.5 +13.4 +18.3
21 17.05 В 1 н/о н/о +13.5 +11.0 85 +14 +14 1018.9 1007.5 +13.2 +18.3
00 18.05 СЗ 1 н/о н/о +13.9 +11.2 84 +14 +14 1018.3 1006.9 +13.1 +18.3
03 18.05 штиль 0 н/о н/о +13.9 +11.4 85 +14 +14 1017.5 1006.1 +13.1 +18.3
06 18.05 штиль 0 н/о н/о +10.7 +9.1 90 +10 +10 1017.8 1006.3 +10.5
09 18.05 Ю 3 н/о н/о +15.5 +11.3 76 +15 +15 1018.1 1006.8 +10.3 +16.4
12 18.05 Ю 6 н/о н/о +18.2 +11.6 65 +18 +18 1014.9 1003.7 +10.3 +18.9
15 18.05 ЮВ 5 н/о н/о +18.5 +10.9 61 +19 +19 1013.5 1002.3 +18.1 +19.5
18 18.05 В 4 н/о н/о +12.9 +9.7 81 +11 +11 1013.5 1002.1 +12.9 +19.5
21 18.05 ЮВ 4 н/о н/о +10.7 +9.4 92 +8 +8 1014.0 1002.5 +10.7 +19.5
00 19.05 В 3 н/о н/о +8.1 +7.6 97 +5 +5 1012.7 1001.1 +7.9 +19.5
03 19.05 СЗ 1 н/о н/о +8.3 +8.0 98 +7 +7 1013.4 1001.8 +7.9 +19.5
06 19.05 З 4 н/о н/о +8.1 +7.8 98 +5 +5 1015.3 1003.7 +7.6
09 19.05 СЗ 4 н/о н/о +12.4 +12.0 97 +10 +10 1015.9 1004.5 +7.6 +12.4
12 19.05 З 7 н/о н/о +12.7 +10.7 88 +10 +10 1015.4 1004.0 +7.6 +16.4
15 19.05 СЗ 5 н/о н/о +12.7 +11.1 90 +10 +10 1015.5 1004.1 +12.5 +16.4
18 19.05 С 3 н/о н/о +12.7 +9.7 82 +11 +11 1016.1 1004.7 +12.5 +16.4
21 19.05 СЗ 4 н/о н/о +13.6 +9.8 78 +12 +12 1016.5 1005.1 +12.5 +16.4
00 20.05 СЗ 5 н/о н/о +14.0 +10.4 79 +12 +12 1016.1 1004.7 +12.5 +16.4
03 20.05 СЗ 7 н/о н/о +15.4 +11.0 75 +14 +14 1015.8 1004.5 +12.5 +16.4
06 20.05 З 5 н/о н/о +13.5 +13.0 97 +12 +12 1018.3 1006.9 +12.5 5
09 20.05 З 5 н/о н/о +14.1 +13.7 97 +12 +12 1021.9 1010.5 +12.5 +14.1
12 20.05 З 2 н/о н/о +15.4 +14.9 97 +15 +15 1022.3 1010.9 +12.5 +15.4 5
15 20.05 ЮВ 5 н/о н/о +16.1 +9.8 66 +15 +15 1022.8 1011.4 +15.3 +16.8
18 20.05 ЮВ 3 н/о н/о +12.3 +9.8 85 +11 +11 1024.4 1012.9 +12.3 +16.8 5
21 20.05 В 3 н/о н/о +10.0 +7.7 86 +8 +8 1025.3 1013.7 +9.8 +16.8
00 21.05 СВ 3 н/о н/о +8.2 +6.8 91 +5 +5 1025.3 1013.6 +8.2 +16.8 5
03 21.05 СВ 4 н/о н/о +6.6 +5.7 94 +3 +3 1024.8 1013.0 +6.6 +16.8
06 21.05 СВ 5 н/о н/о +6.7 +5.4 91 +2 +2 1024.9 1013.1 +6.3 5
09 21.05 СВ 3 н/о н/о +14.8 +6.6 58 +14 +14 1025.4 1014.0 +6.3 +14.8
12 21.05 Ю 5 н/о н/о +18.1 +9.8 58 +18 +18 1022.6 1011.3 +6.3 +18.6 0.2

 

Местоположение метеостанции Коингнаас (Южная Африка): широта -30.20 долгота 17.28 высота над уровнем моря 99 м.

В архиве по умолчанию представлена погода в Коингнаасе за последнюю неделю. Архивные данные за месяц целиком и за предыдущие месяцы, начиная с января 2011 года, Вы можете получить, выбрав интересующий диапазон дат из раскрывающегося списка и нажав кнопку "Ввод!".


*Определитесь, кто Вы:
робот инопланетянин человек

Внимание! Время в таблицах - всемирное. Для получения местного времени необходимо прибавить поправку, которая равна 2 ч.

Смотрите также архив погоды в соседних городах и на ближайших метеорологических станциях:

Погода в Спрингбоке (Южная Африка) (85 км)
Погода в Порт Ноллоз (Южная Африка) (115 км)
Погода в Портервилле (Южная Африка) (165 км)
Погода в Виулсдрифе (Южная Африка) (170 км)
Погода в Александер-Бее (Южная Африка) (196 км)
Погода в Фридендале (Южная Африка) (200 км)
Погода в Ниеувоудтвилле (Южная Африка) (214 км)
Погода в Ламбертс-Бей (Южная Африка) (227 км)
Погода в Пофаддере (Южная Африка) (235 км)
Погода в Клануильяме (Южная Африка) (268 км)

Пояснения к столбцам:

Ветер - указаны скорость ветра в м/с - средняя за 10 мин, порывы в срок и между сроками (в фигурных скобках) и направление, откуда дует ветер: С - северный, СВ - северо-восточный, В - восточный, ЮВ - юго-восточный, Ю - южный, ЮЗ - юго-западный, З - западный, СЗ - северо-западный.
Видимость - горизонтальная дальность видимости в метрах или километрах. При видимости от 1 до 10 км при отсутствии осадков обычно наблюдается дымка, при ухудшении видимости до 1 км и менее - туман. В сухую погоду видимость может ухудшаться дымом, пылью или мглою.
Явления - указаны атмосферные явления, наблюдавшиеся в срок или в последний час перед сроком; фигурными скобками обозначены явления, наблюдавшиеся между сроками (за 1-3 часа до срока); квадратными скобками обозначены град или гололедные отложения с указанием их диаметра в мм.
Облачность - указаны через наклонную черту общая и нижняя облачность в баллах и высота нижней границы облаков в метрах; квадратными скобками обозначены формы облаков: Ci - перистые, Cs - перисто-слоистые, Cc - перисто-кучевые, Ac - высококучевые, As - высокослоистые, Sc - слоисто-кучевые, Ns - слоисто-дождевые, Cu - кучевые, Cb - кучево-дождевые. Подробнее классификацию облаков см. в Атласе облаков (PDF).
T - Температура воздуха - температура, измеренная на высоте 2 м над землей.
Td - Температура точки росы - температура, при понижении до которой содержащийся в воздухе водяной пар достигнет насыщения.
f - Относительная влажность воздуха - влажноcть воздуха, измеренная на высоте 2 м над землей.
Te - Эффективная температура - температура, которую ощущает одетый по сезону человек в тени. Характеристика душности погоды. При расчете учитывается влияние влажности воздуха и скорости ветра на теплоощущения человека.
Tes - Эффективная температура на солнце - температура, которую ощущает человек, с поправкой на солнечный нагрев. Характеристика знойности погоды. Зависит от высоты солнца над горизонтом, облачности и скорости ветра. Ночью, в пасмурную погоду, а также при ветре 12 м/с и более поправка равна нулю.
P - Атмосферное давление - приведенное к уровню моря атмосферное давление.
Po - Атмосферное давление - измеренное на уровне метеостанции атмосферное давление.
Tmin - Минимальная температура - минимум температуры воздуха на высоте 2 м над землей.
Tmax - Максимальная температура - максимум температуры воздуха на высоте 2 м над землей.
R - Количество осадков - Количество выпавших осадков за период времени, мм. При наведении курсора мыши на число - период времени, за который выпало указанное количество осадков.
R24 - Количество осадков - Количество выпавших осадков за 24 часа, мм.
S - Снежный покров - Высота снежного покрова, см. При наведении курсора мыши на число - состояние снежного покрова и степень покрытия местности в баллах.